Location: Emblem
(62.4273°N, 6.4710°E)
Time: 19:31:32
(UTC+02:00)

Vanguard 2 - Pass Details

Date: 12 February 2023
Orbit: 553 x 2927 km, 32.9° (Epoch: 27 March)

Event Time Altitude Azimuth Distance (km) Brightness Sun altitude
Rises 20:10:42 0° 199° (SSW) 4,611 11.6 -21.5°
Reaches altitude 10° 20:17:25 10° 167° (SSE) 4,290 11.1 -22.3°
Maximum altitude 20:19:49 11° 155° (SSE) 4,436 11.0 -22.5°
Enters shadow 20:20:31 11° 151° (SSE) 4,500 11.0 -22.6°
Drops below altitude 10° 20:22:25 10° 143° (SE) 4,720 - -22.8°
Sets 20:31:46 0° 114° (ESE) 6,354 - -23.8°
